Location: Beacon Field Observatory
(38.7700°N, 77.0829°W)
Time: 09:26:25
(UTC-05:00)

UKube-1 - Pass Details

Date: 12 December 2019
Orbit: 614 x 618 km, 98.5° (Epoch: 18 January)

Event Time Altitude Azimuth Distance (km) Brightness Sun altitude
Rises 04:53:52 0° 170° (S) 2,865 ? -27.1°
Reaches altitude 10° 04:56:02 10° 172° (S) 1,965 ? -26.7°
Enters shadow 04:58:03 27° 178° (S) 1,172 ? -26.3°
